Погода в Татищево

Россия / Оренбургская область     51°41′34″N   54°18′47″E
темп.,
°C
ветер,
м/с
пор.,
м/с
влажн.,
%
обл.,
%
осадки,
мм/ч
давл.,
гПа
погр.,
м
9 декабря, чт
чт923:00−7вюв51092100 0.0 1035206
02:00−8в51089100 0.0 1034198
05:00−8в51086100 0.0 1033194
08:00−8в61285100 0.0 1032219
11:00−5в61384100 0.0 1031357
14:00−3вюв61378100 0.0 1029383
17:00−4в61278100 0.0 1028240
20:00−5в61280100 0.0 1027253
10 декабря, пт
пт1023:00−5в61279100 0.0 1027258
02:00−5в51083100 0.0 1026181
05:00−5в61083100 0.0 1024194
08:00−5всв5986100 0.0 1023162
11:00−5в5986100 0.0 1024213
14:00−3всв5888100 0.0 1022221
17:00−3всв61087100 0.0 1023221
20:00−4всв5118799 0.0 1023234
11 декабря, сб
сб1123:00−5св51182100 0.0 1024201
02:00−5св51179100 0.0 1023219
05:00−5ссв51180100 0.0 1024264
08:00−5св51283100 0.0 1025293
11:00−6св5128190 0.0 1027242
14:00−5св6138186 0.0 1028350
17:00−6св714855 0.0 1030315
20:00−7св614793 0.0 1033322
12 декабря, вс
вс1223:00−8св614750 0.0 1034276
02:00−10всв614730 0.0 1036226
05:00−11св411770 0.0 1038134
08:00−12св38784 0.0 1040104
11:00−12св28810 0.0 1041111
14:00−9св38805 0.0 1042167
17:00−11св36805 0.0 104369
20:00−14ссв22835 0.0 104412
13 декабря, пн
пн1323:00−15ссв22843 0.0 104410
02:00−15ссв11845 0.0 104410
05:00−16ссв11844 0.0 104410
08:00−16ссв11845 0.0 104410
11:00−15св11875 0.0 104413
14:00−9ссз11815 0.0 104317
17:00−13с11855 0.0 10439
20:00−15ссв11855 0.0 10439